Location: Acequia del Cap
(41.7000°N, 0.6167°E)
Time: 00:05:18
(UTC+00:00)

Cosmos 2219 - Pass Details

Date: 07 August 2020
Orbit: 834 x 860 km, 71.1° (Epoch: 22 September)

Event Time Altitude Azimuth Distance (km) Brightness Sun altitude
Exits shadow 02:27:16 30° 279° (W) 1,450 4.1 -23.1°
Maximum altitude 02:28:26 33° 303° (WNW) 1,371 4.2 -23.0°
Drops below altitude 10° 02:33:29 10° 7° (N) 2,452 6.4 -22.4°
Sets 02:36:11 0° 17° (NNE) 3,390 7.5 -22.1°
